Dubai, UAE

9:54 AM +04 on July 21, 2017 (GMT +0400)
Dubai

Weather History for 41194 - May, 2013

Change the Weather History Date:

Monday, May 20, 2013

  Actual Average Record
Temperature  
Mean Temperature 82 °F -  
Max Temperature 91 °F 100 °F - ()
Min Temperature 74 °F 79 °F - ()
Cooling Degree Days 18    
Growing Degree Days 32 (Base 50)    
Moisture  
Dew Point 67 °F    
Average Humidity 56    
Maximum Humidity 74    
Minimum Humidity 26    
Precipitation  
Precipitation 0.00 in 0.00 in - ()
Sea Level Pressure  
Sea Level Pressure 29.69 in    
Wind  
Wind Speed 8 mph ()    
Max Wind Speed 15 mph    
Max Gust Speed -    
Visibility 6.0 miles    
Events      
T = Trace of Precipitation, MM = Missing Value Source: Averaged Metar Reports

Daily Weather History Graph

Daily Weather History Graph

Search for Another Location

Airport or City:

Trip Planner

Search our weather history database for the weather conditions in past years. The results will help you decide how hot, cold, wet, or windy it might be!

Date:

Astronomy

May. 20, 2013 Rise Set
Actual Time 5:31 AM +04 6:58 PM +04
Civil Twilight 5:06 AM +04 7:24 PM +04
Nautical Twilight 4:36 AM +04 7:53 PM +04
Astronomical Twilight 4:05 AM +04 8:25 PM +04
Moon 2:10 PM +04 (5/20) 1:41 AM +04 (5/20)
Length of Visible Light 14h 17m
Length of Day
13h 27m
Waxing Gibbous, 71% of the Moon is Illuminated
May 20
Waxing Gibbous
May 25
Full
May 31
Last Quarter
Jun 8
New
Jun 16
First Quarter

Hourly Weather History & Observations

Time (+04) Temp. Heat Index Dew Point Humidity Pressure Visibility Wind Dir Wind Speed Gust Speed Precip Events Conditions
12:00 AM 82.4 °F 86.3 °F 69.8 °F 66% 29.68 in - SW 6.9 mph - N/A   Clear
1:00 AM 79 °F - 68 °F 61% 29.69 in 6 mi South 6.9 mph - -  
1:00 AM 78.8 °F - 68.0 °F 69% 29.68 in - South 6.9 mph - N/A   Clear
2:00 AM 77.0 °F - 66.2 °F 69% 29.65 in - South 6.9 mph - N/A   Clear
3:00 AM 77.0 °F - 66.2 °F 69% 29.65 in - South 5.8 mph - N/A   Clear
4:00 AM 76 °F - 65 °F 61% 29.68 in 6 mi South 6.9 mph - -  
4:00 AM 75.2 °F - 64.4 °F 69% 29.65 in - South 6.9 mph - N/A   Clear
5:00 AM 75.2 °F - 64.4 °F 69% 29.68 in - South 4.6 mph - N/A   Clear
6:00 AM 75.2 °F - 64.4 °F 69% 29.68 in - South 5.8 mph - N/A   Clear
7:00 AM 76 °F - 64 °F 58% 29.73 in 6 mi SSW 8.1 mph - -  
7:00 AM 75.2 °F - 64.4 °F 69% 29.71 in - SSW 8.1 mph - N/A   Clear
8:00 AM 78.8 °F - 64.4 °F 61% 29.74 in - South 10.4 mph - N/A   Clear
9:00 AM 84.2 °F 85.6 °F 64.4 °F 51% 29.74 in - South 10.4 mph - N/A   Clear
10:00 AM 87 °F - 63 °F 35% 29.75 in 6 mi SW 8.1 mph - -  
10:00 AM 87.8 °F 88.5 °F 62.6 °F 43% 29.74 in - Variable 8.1 mph - N/A   Clear
11:00 AM 89.6 °F 90.1 °F 62.6 °F 40% 29.74 in - SSW 9.2 mph - N/A   Clear
12:00 PM 91.4 °F 92.1 °F 62.6 °F 38% 29.71 in - West 10.4 mph - N/A   Clear
1:00 PM 91 °F - 61 °F 26% 29.72 in 6 mi West 13.8 mph - -  
1:00 PM 91.4 °F 91.4 °F 60.8 °F 36% 29.71 in - West 13.8 mph - N/A   Clear
2:00 PM 91.4 °F 93.2 °F 64.4 °F 41% 29.68 in - West 13.8 mph - N/A   Clear
3:00 PM 91.4 °F 94.0 °F 66.2 °F 43% 29.65 in - West 15.0 mph - N/A   Clear
4:00 PM 90 °F - 68 °F 39% 29.67 in 6 mi West 12.7 mph - -  
4:00 PM 89.6 °F 93.4 °F 68.0 °F 49% 29.65 in - West 12.7 mph - N/A   Clear
5:00 PM 89.6 °F 93.4 °F 68.0 °F 49% 29.65 in - WSW 10.4 mph - N/A   Clear
6:00 PM 87.8 °F 91.4 °F 68.0 °F 52% 29.65 in - West 11.5 mph - N/A   Clear
7:00 PM 85 °F - 72 °F 57% 29.67 in 6 mi West 10.4 mph - -  
7:00 PM 86.0 °F 91.8 °F 71.6 °F 62% 29.65 in - West 10.4 mph - N/A   Clear
8:00 PM 84.2 °F 89.6 °F 71.6 °F 66% 29.68 in - West 6.9 mph - N/A   Clear
9:00 PM 84.2 °F 90.9 °F 73.4 °F 70% 29.68 in - SW 5.8 mph - N/A   Clear
10:00 PM 82.4 °F 88.2 °F 73.4 °F 74% 29.68 in - WSW 5.8 mph - N/A   Clear
11:00 PM 82.4 °F 88.2 °F 73.4 °F 74% 29.71 in - WSW 6.9 mph - N/A   Clear